Regional Weather Roundup
Issued by NWS

Home | Current Version | Previous Version | Text Only | Print | Product List | Glossary Off
Versions: 1 2 3 4 5 6 7 8 9 10 11 12 13 14 15 16 17 18 19 20 21 22 23 24 25 26 27 28 29 30 31 32 33 34 35 36 37 38 39 40 41 42 43 44 45 46 47 48 49 50

000
ASUS45 KBOU 100010
RWRCO

WEATHER ROUNDUP FOR COLORADO
NATIONAL WEATHER SERVICE DENVER/BOULDER CO
600 PM MDT WED JUL 09 2014

NOTE: "FAIR" INDICATES FEW OR NO CLOUDS BELOW 12000 FEET WITH NO
SIGNIFICANT WEATHER AND/OR OBSTRUCTIONS TO VISIBILITY.

COZ001>005-013-030-031-100100-
...NORTHWEST COLORADO...

CITY           SKY/WX    TMP DP  RH WIND       PRES   REMARKS
CRAIG          CLOUDY    72  44  36 S22G33    30.09F
HAYDEN         CLOUDY    79  37  22 SW17G24   30.12S
MEEKER         CLOUDY    80  40  23 NW16G29   30.16R
MOUNT WERNER   CLOUDY    68  27  21 NW7       30.48S
STEAMBOAT SPGS CLOUDY    80  38  22 CALM      30.13F
WALDEN         PTSUNNY   70  34  26 S6G21     30.23F
$$

COZ006>008-011-100100-
...WEST CENTRAL VALLEYS...

CITY           SKY/WX    TMP DP  RH WIND       PRES   REMARKS
GRAND JUNCTION PTSUNNY   89  45  21 SW6       29.98F
MONTROSE       PTSUNNY   87  45  23 S16       30.09S
EAGLE          PTSUNNY   81  43  26 W10       30.16F
RIFLE          CLOUDY    84  37  18 W17G28    30.05R
DELTA          PTSUNNY   92  44  18 SW9       30.02S
NUCLA          PTSUNNY   77  45  31 SE10G24   30.19R
$$

COZ017>023-064>068-100100-
...SOUTHWEST COLORADO...

CITY           SKY/WX    TMP DP  RH WIND       PRES   REMARKS
DURANGO        CLOUDY    67  53  61 E10       30.21R
CORTEZ         SUNNY     77  51  40 NE13      30.13F
PAGOSA SPRINGS CLOUDY    59  56  87 CALM      30.31F
TELLURIDE      CLOUDY    59  48  67 CALM      30.40F
WOLF CREEK PAS NOT AVBL
$$

COZ009-010-012-014-032>034-037-058>063-100100-
...CENTRAL COLORADO...

CITY           SKY/WX    TMP DP  RH WIND       PRES   REMARKS
ASPEN          CLOUDY    73  39  29 SW7       30.24F
BUENA VISTA    PTSUNNY   75  34  22 SW13G25   30.24F
COPPER MTN     PTSUNNY   63  27  25 W10G16    30.59F
BERTHOUD PASS  CLOUDY    52  37  58 CALM      30.65F
COTTONWOOD PAS CLOUDY    68  32  26 W17G24    30.41F
GUNNISON       NOT AVBL
KREMMLING      PTSUNNY   73  37  27 CALM      30.19F THUNDER
LEADVILLE      CLOUDY    70  35  27 N12       30.40F
MONARCH PASS   CLOUDY    57  32  38 NW7       30.69F
SALIDA         PTSUNNY  N/A N/A N/A W9        30.27F
SUNLIGHT       CLOUDY    64  37  36 CALM      30.53S
WILKERSON PASS CLOUDY    59  36  41 CALM      30.57S
$$

COZ069>075-100100-
...SAN LUIS VALLEY/SANGRE DE CRISTO MOUNTAINS...

CITY           SKY/WX    TMP DP  RH WIND       PRES   REMARKS
ALAMOSA        PTSUNNY   79  43  27 SE15      30.23S
LA VETA PASS   CLOUDY    59  39  47 N3        30.46F
SAGUACHE       NOT AVBL
$$

COZ035-036-038>040-100100-
...NORTHERN COLORADO FRONT RANGE...

CITY           SKY/WX    TMP DP  RH WIND       PRES   REMARKS
DENVER INTL AP CLOUDY    87  40  19 SE7       30.01F
DMNS CITY PARK   N/A     81  53  37 W13G18    30.04R
AURORA         PTSUNNY   81  46  28 E12       30.05F
FRONT RANGE AP NOT AVBL
ERIE MUNI ARPT CLOUDY    79  54  42 W8        30.00S
BOULDER MUN AP CLOUDY    77  52  41 W3        30.00F
CENTENNIAL     CLOUDY    83  42  23 NE8       30.07R
BROOMFIELD     PTSUNNY   79  50  36 W10       30.05F
FORT COLLINS   PTSUNNY   82  57  42 NE6       29.98F
LONGMONT       PTSUNNY   84  55  36 CALM      30.01S
$$

COZ041-046-047-076>085-087-088-100100-
...PIKES PEAK/PALMER DIVIDE AND SOUTHERN FOOTHILLS...

CITY           SKY/WX    TMP DP  RH WIND       PRES   REMARKS
COLO. SPRINGS  PTSUNNY   83  38  20 S7        30.11F
A. F. ACADEMY  PTSUNNY   79  37  21 SE12      30.14R
ELLICOTT       NOT AVBL
FALCON         PTSUNNY   81  38  22 S9        30.17F
FORT CARSON    MOSUNNY   86  42  21 SE12      30.07F
LIMON          CLOUDY    84  41  21 SW14      30.03F
MONUMENT HILL  CLOUDY    75  37  25 S13       30.19R THUNDER
TRINIDAD       PTSUNNY   83  44  25 SW18G25   30.08S
$$

COZ042>045-048>051-090-091-100100-
...NORTHEAST COLORADO...

CITY           SKY/WX    TMP DP  RH WIND       PRES   REMARKS
GREELEY ARPT   PTSUNNY   82  63  51 N5        29.97F
AKRON          CLOUDY    86  49  27 NW24G37   30.02R THUNDER
BURLINGTON     MOSUNNY   88  53  30 S18       29.96F
WRAY           SUNNY     90  54  29 SE12G18   29.93S
STERLING       LGT RAIN  88  39  18 SW21G47   29.92F
HOLYOKE        SUNNY     86  59  39 S12       29.93F
FORT MORGAN    CLOUDY    81  48  30 NE20G32   29.98R
$$

COZ086-089-092>099-100100-
...SOUTHEAST COLORADO...

CITY           SKY/WX    TMP DP  RH WIND       PRES   REMARKS
PUEBLO         MOSUNNY   94  42  16 NE5       29.95F
LA JUNTA       PTSUNNY   93  49  22 S23G30    29.93S
LAMAR          MOSUNNY   97  47  18 S21G26    29.89F
SPRINGFIELD      N/A     85  47  26 SW17G26   30.00S
$$



USA.gov is the U.S. government's official web portal to all federal, state and local government web resources and services.